User: anonymous   Login
Location: Newark
(21.1200°N, 73.4000°E)
Time: 05:06:21
(UTC+00:00)
Language:

A-11 Canister half - Orbit

View from above orbital plane
View from above orbital plane
View from above satellite
View from above satellite

Ground track
Ground track

The orbit data is extracted from the following two-line orbital elements,

1    53U 60009E   20024.35803104 -.00000032 +00000-0 +52503-3 0  9999
2    53 047.2786 346.4382 0099433 011.4895 348.8133 12.17236984650891
Epoch (UTC): 24 January 2020 08:35:33
Eccentricity: 0.0099433
inclination: 47.2786°
perigee height: 1525 km
apogee height: 1684 km
right ascension of ascending node: 346.4382°
argument of perigee: 11.4895°
revolutions per day: 12.17236984
mean anomaly at epoch: 348.8133°
orbit number at epoch: 65089

The dashed part of the orbit path shows where the satellite is in the earth's shadow,  

DLR